Regional Weather Roundup
Issued by NWS

Home | Current Version | Previous Version | Text Only | Print | Product List | Glossary Off
Versions: 1 2 3 4 5 6 7 8 9 10 11 12 13 14 15 16 17 18 19 20 21 22 23 24 25 26 27 28 29 30 31 32 33 34 35 36 37 38 39 40 41 42 43 44 45 46 47 48 49 50

063
ASUS45 KTFX 280810
RWRMT
MONTANA REGIONAL WEATHER ROUNDUP
NATIONAL WEATHER SERVICE GREAT FALLS MT
200 AM MDT FRI APR 28 2017

NOTE: "FAIR" INDICATES FEW OR NO CLOUDS BELOW 12000 FEET WITH NO
SIGNIFICANT WEATHER AND/OR OBSTRUCTIONS TO VISIBILITY.

MTZ001>007-043-280900-
WEST OF THE DIVIDE

CITY           SKY/WX    TMP DP  RH WIND       PRES   REMARKS
KALISPELL      CLOUDY    40  37  89 S3        29.91R
MISSOULA       CLOUDY    38  30  73 CALM      29.95S
BUTTE          CLOUDY    31  21  66 W7        29.89R WCI  24
MULLAN PASS    SNOW      27  27 100 CALM      29.89S VSB 1/4
ANACONDA         N/A     28  21  74 N5        29.91R
DEER LODGE       N/A     28  25  86 CALM      29.93S
EUREKA           N/A     43  36  75 SE8       29.91R
HAMILTON         N/A     36  25  64 S5        29.95R
LIBBY            N/A     34  32  93 CALM      29.92R
PLAINS           N/A     41  32  70 CALM      29.96
THOMPSON FALLS   N/A     40  37  89 CALM      30.00
$$

MTZ008-052>055-280900-
SOUTHWEST MONTANA

CITY           SKY/WX    TMP DP  RH WIND       PRES   REMARKS
BOZEMAN        CLOUDY    36  33  89 W6        29.87R WCI  31
DILLON         CLOUDY    33  26  75 S3        29.87R
W YELLOWSTONE  CLOUDY    27  27 100 CALM      29.80S
THREE FORKS      N/A     36 -50   2 SW2       29.88S
TWIN BRIDGES     N/A     36  19  50 N12       29.87  WCI  28
$$

MTZ009-010-012-014-046-048-049-054-280900-
EAST SLOPES AND CENTRAL MONTANA

CITY           SKY/WX    TMP DP  RH WIND       PRES   REMARKS
CUT BANK       CLOUDY    36  34  92 SW3       29.86S
GREAT FALLS    CLOUDY    37  35  92 SW7       29.87S WCI  32
MALMSTROM AFB  CLOUDY    38  38  99 SW6       29.88S
HELENA         CLOUDY    35  27  72 NW8       29.88R WCI  29
AUGUSTA          N/A     28  29 100 CALM      29.86R
BOWMANS CRNR     N/A     30  29  99 SW6       29.85S WCI  24
CHOTEAU          N/A     34  34 100 S5        29.89R
FAIRFIELD        N/A     34  32  94 CALM      29.87R
POWER          CLOUDY    36  35  96 CALM      29.86S
RAYNESFORD     MOCLDY    35  34  98 CALM      29.88R
ULM            MOCLDY    37  36  96 S5        29.88R
$$

MTZ011-013-016-021-045-047-050-051-280900-
NORTH CENTRAL MONTANA

CITY           SKY/WX    TMP DP  RH WIND       PRES   REMARKS
HAVRE          CLOUDY    29  28  96 SE5       29.88R
LEWISTOWN      CLOUDY    36  35  96 NW9       29.84R WCI  29
CHINOOK          N/A     34  34 100 CALM      29.89R
DENTON         MOCLDY    38  35  90 MISG      29.83R
FORT BENTON      N/A     41  37  87 N3        29.89R
GEYSER         MOCLDY    35  33  94 W10       29.86R WCI  27
GRASS RANGE    CLOUDY    38  36  92 SW6       29.80S
JUDITH GAP     MOCLDY    34  31  89 N24G31    29.81R WCI  22
STANFORD       MOCLDY    34  33  94 NW9       29.85S WCI  27
WINIFRED       MOCLDY    36  36 100 NW7       29.85R WCI  30
$$

MTZ017>020-022>027-061-062-280900-
NORTHEAST MONTANA

CITY           SKY/WX    TMP DP  RH WIND       PRES   REMARKS
GLASGOW        CLOUDY    42  16  34 E13       29.85R
JORDAN           N/A     37  27  67 CALM      29.81R
SIDNEY         CLEAR     30  19  63 N6        29.88R WCI  24
WOLF POINT     CLOUDY    37  20  50 E8        29.87R WCI  31
MALTA          CLOUDY    43  34  70 N15       29.85S
PLENTYWOOD       N/A     34  16  47 SE5       29.90R
POPLAR           N/A     30  18  59 N5        29.89R
SCOBEY           N/A     37  13  37 E6        29.86
$$

MTZ028>42-056>058-280900-
SOUTHCENTRAL AND SOUTHEAST MONTANA

CITY           SKY/WX    TMP DP  RH WIND       PRES   REMARKS
BAKER          PTCLDY    31  22  69 SE8       29.83R WCI  23
BILLINGS       LGT RAIN  39  37  92 NE8       29.81R
LIVINGSTON     CLOUDY    37  30  75 W8        29.84R WCI  31
MILES CITY     CLOUDY    37  29  72 NE9       29.81R WCI  30
BIG TIMBER     CLOUDY    36  32  87 SW9       29.85S WCI  29
EKALAKA          N/A     33  24  70 SE3       29.79
LAUREL           N/A     38  32  79 N2        29.81S
ROUNDUP          N/A     40  35  82 NW7       29.75R
$$

REGIONAL REPORTS...DAKOTAS

CITY           SKY/WX    TMP DP  RH WIND       PRES   REMARKS
WILLISTON      CLEAR     31  20  63 CALM      29.90R
MINOT          CLEAR     29  24  82 NW6       29.91R WCI  23
DICKINSON      CLEAR     28  16  60 E8        29.85R WCI  20
BEACH          CLOUDY    27  18  69 SE6       29.88R WCI  20
TIOGA            N/A     25  21  86 CALM      29.92R
WATFORD CITY     N/A     28  19  69 E8        29.88S WCI  20
BISMARCK       CLEAR     30  26  85 S3        29.91R
GRAND FORKS    CLOUDY    33  29  85 NW6       29.85R WCI  28
FARGO          CLEAR     30  26  85 NW8       29.85R WCI  22
BUFFALO SD       N/A     33  26  75 NE8       29.74R WCI  26
RAPID CITY     CLOUDY    38  31  76 NE3       29.75F
$$

REGIONAL REPORTS...WYOMING/IDAHO/WASHINGTON

CITY           SKY/WX    TMP DP  RH WIND       PRES   REMARKS
GILLETTE       SNOW      33  33 100 N7        29.70S WCI  27
SHERIDAN       FLURRIES  33  32  96 NW8       29.77R WCI  26
BUFFALO WY     SNOW      34  31  88 NW15      29.73S VSB 1/2 WCI  24
CODY           FLURRIES  34  32  92 N13G18    29.76F WCI  25
YELLOWSTONE LA   N/A     25  22  88 VRB3      29.77S
IDAHO FALLS    CLOUDY    33  32  96 SW8       29.84S WCI  26
SALMON         CLOUDY    34  25  69 S6        29.94R WCI  29
BOISE          MOCLDY    38  30  73 NW9       29.98S WCI  31
SPOKANE        MOCLDY    43  32  65 CALM      29.95R
$$

REGIONAL REPORTS...ALBERTA

CITY           SKY/WX    TMP DP  RH WIND       PRES   REMARKS
EDMONTON       CLOUDY    32  30  93 E6        29.97R WCI  26
CALGARY        CLOUDY    32  28  86 N3        29.91R
LETHBRIDGE     MOCLDY    39  37  93 SW6       29.89R
MEDICINE HAT   MOCLDY    36  32  87 CALM      29.87R
WATERTON GATE    N/A     34  32  93 CALM        N/A
CARDSTON         N/A     36  34  93 CALM        N/A
MILK RIVER       N/A     37  37 100 W2          N/A
ONEFOUR          N/A     36  34  93 E2          N/A
$$

REGIONAL REPORTS...SASKATCHEWAN

CITY           SKY/WX    TMP DP  RH WIND       PRES   REMARKS
SWIFT CURRENT  LGT RAIN  37  36  93 NE7       29.87R
REGINA         MOCLDY    36  18  48 SE18      29.91R WCI  25
SASKATOON      CLOUDY    43  25  49 SE10      29.92S
CYPRESS HILLS    N/A     32  25  74 S2          N/A
VAL MARIE        N/A     37  36  93 NE1         N/A
ASSINIBOIA       N/A     34  34 100 N5          N/A
$$




USA.gov is the U.S. government's official web portal to all federal, state and local government web resources and services.